This is the latest recevied weather packets stored in our database for station/object KC4JES. If no packets are shown the sender has not sent any weather packets the latest 10 day(s).
| Time | Temp. | Humidity | Pressure | Rain* | Wind** | Luminosity | Snow |
|---|---|---|---|---|---|---|---|
| 1778174792 | 31.11° C | 57% | 1015.2 hPa | 0 mm | - | 950 W/m² | - |
| 1778174490 | 31.67° C | 56% | 1015.5 hPa | 0 mm | - | 600 W/m² | - |
| 1778174184 | 32.78° C | 53% | 1015.2 hPa | 0 mm | - | 557 W/m² | - |
| 1778173881 | 34.44° C | 39% | 1014.9 hPa | 0 mm | - | 248 W/m² | - |
| 1778173579 | 33.89° C | 40% | 1014.9 hPa | 0 mm | - | 285 W/m² | - |
| 1778173275 | 33.33° C | 41% | 1015.1 hPa | 0 mm | - | 154 W/m² | - |
| 1778172971 | 33.33° C | 42% | 1014.9 hPa | 0 mm | - | 143 W/m² | - |
| 1778172668 | 33.33° C | 41% | 1015 hPa | 0 mm | - | 130 W/m² | - |
| 1778172364 | 33.33° C | 44% | 1015.1 hPa | 0 mm | - | 107 W/m² | - |
| 1778172061 | 33.33° C | 41% | 1015 hPa | 0 mm | - | 105 W/m² | - |
| 1778171758 | 33.33° C | 42% | 1015.1 hPa | 0 mm | - | 118 W/m² | - |
| 1778171456 | 32.78° C | 45% | 1015.1 hPa | 0 mm | - | 130 W/m² | - |
| 1778171156 | 32.78° C | 46% | 1015.2 hPa | 0 mm | - | 123 W/m² | - |
| 1778170853 | 32.22° C | 45% | 1015.3 hPa | 0 mm | - | 105 W/m² | - |
| 1778170549 | 32.22° C | 45% | 1015.4 hPa | 0 mm | - | 79 W/m² | - |
| 1778170246 | 32.22° C | 51% | 1015.3 hPa | 0 mm | - | 78 W/m² | - |
| 1778169942 | 32.22° C | 50% | 1015.6 hPa | 0 mm | - | 83 W/m² | - |
| 1778169639 | 31.67° C | 51% | 1015.6 hPa | 0 mm | - | 94 W/m² | - |
| 1778169334 | 31.67° C | 49% | 1015.6 hPa | 0 mm | - | 77 W/m² | - |
| 1778169031 | 31.67° C | 49% | 1015.8 hPa | 0 mm | - | 105 W/m² | - |
| 1778168728 | 31.67° C | 49% | 1015.6 hPa | 0 mm | - | 123 W/m² | - |
| 1778168426 | 31.67° C | 52% | 1015.6 hPa | 0 mm | - | 155 W/m² | - |
| 1778168122 | 31.11° C | 52% | 1015.7 hPa | 0 mm | - | 150 W/m² | - |
| 1778167818 | 31.11° C | 53% | 1015.5 hPa | 0 mm | - | 155 W/m² | - |
| 1778167514 | 31.11° C | 55% | 1015.3 hPa | 0 mm | - | 152 W/m² | - |
* Rain latest hour (hover to see other rain measurements)
** Current wind speed in m/s (hover to see current wind gust speed)